Hourly Data Report for September 25, 2010

IQALUIT CLIMATE
NUNAVUT

63°44'50.000" N
68°32'40.000" W
33.50 m
2402592
71321
XFB

Download Data

Hourly Data (September 2010)
Hourly Data Report for September 25, 2010
TIME
LST
Temp Definition
°C
Dew Point Definition
°C
Rel Hum Definition
%
Precip. Amount Definition
mm

Wind Dir Definition
10's deg

Wind Spd Definition
km/h
Visibility Definition
km
Stn Press Definition
kPa
Hmdx Definition


Wind Chill Definition


Weather Definition


00:00 1.9 1.7 99   32 6   100.34     LegendNANA
01:00 1.3 0.5 94   33 15   100.37     LegendNANA
02:00 0.9 0.3 96   32 13   100.41     LegendNANA
03:00 1.5 1.2 98   33 20   100.44     LegendNANA
04:00 2.0 1.3 95   32 22   100.47     LegendNANA
05:00 1.9 1.1 94   32 24   100.49     LegendNANA
06:00 1.9 1.6 98   32 24   100.52     LegendNANA
07:00 2.2 1.9 98   32 20   100.55     LegendNANA
08:00 3.0 0.5 84   33 28   100.57     LegendNANA
09:00 3.1 0.1 81   33 33   100.59     LegendNANA
10:00 3.8 0.4 78   33 33   100.63     LegendNANA
11:00 4.1 1.4 83   32 35   100.64     LegendNANA
12:00 3.8 0.7 80   32 35   100.66     LegendNANA
13:00 4.3 -0.7 70   32 39   100.70     LegendNANA
14:00 4.1 -0.2 74   32 32   100.70     LegendNANA
15:00 4.2 0.3 76   32 28   100.73     LegendNANA
16:00 4.3 0.6 77   33 28   100.73     LegendNANA
17:00 2.8 0.9 87   32 22   100.74     LegendNANA
18:00 2.3 0.8 90   31 19   100.75     LegendNANA
19:00 2.4 0.9 90   32 13   100.73     LegendNANA
20:00 2.4 0.3 86   33 7   100.72     LegendNANA
21:00 2.5 -0.3 82   30 19   100.68     LegendNANA
22:00 1.7 0.3 90   35 2   100.63     LegendNANA
23:00 1.5 0.5 93   34 4   100.60     LegendNANA

Notes on Data Quality.

Legend

  • E = Estimated
  • M = Missing
  • NA = Not Available*
  • [empty] = Indicates an unobserved value
Date modified: